Date String (YYYY-MM-DD hh:mm:ss) UTC,Instrument flags,Ambient pressure (hPa),Sample flow (lpm),Bypass flow (lpm),Sample temperature (°C),Ambient temperature (°C),ASC tube jacket temperature (°C),LED temperature (°C),Box temperature (°C),Sample RH (%),Span deviation,Mass concentration (μg/m³),Mass concentration (μg/m³),Mass concentration (μg/m³)
DateTimeUTC,F1_M11,P_M11,Q1_M11,Q2_M11,T1_M11,T2_M11,T3_M11,T4_M11,T5_M11,U1_M11,ZSPAN_M11,X0_M11,X2_M11,X1_M11
2022-04-21 06:00:00,,0823.9,4.99,0.00,29.3,28.5,00.0,38.3,31.0,09.6,0000.0,0024.22,0005.87,0002.22
2022-04-21 06:01:00,,0823.9,5.02,0.00,29.3,28.5,00.0,38.3,31.0,09.6,0000.0,0024.77,0005.90,0002.19
2022-04-21 06:02:00,,0824.0,4.99,0.00,29.3,28.4,00.0,38.3,31.0,09.6,0000.0,0024.42,0005.94,0002.18
2022-04-21 06:03:00,,0824.0,4.99,0.00,29.3,28.4,00.0,38.3,31.0,09.6,0000.0,0024.55,0005.98,0002.18
2022-04-21 06:04:00,,0824.0,5.01,0.00,29.3,28.4,00.0,38.3,31.0,09.6,0000.0,0024.19,0006.00,0002.17
2022-04-21 06:05:00,,0824.0,4.99,0.00,29.3,28.4,00.0,38.3,31.0,09.6,0000.0,0024.31,0005.99,0002.15
2022-04-21 06:06:00,,0824.0,4.99,0.00,29.3,28.4,00.0,38.3,31.0,09.6,0000.0,0024.76,0006.04,0002.17
2022-04-21 06:07:00,,0824.0,4.99,0.00,29.3,28.4,00.0,38.3,31.1,09.6,0000.0,0026.06,0005.99,0002.17
2022-04-21 06:08:00,,0824.0,5.01,0.00,29.3,28.5,00.0,38.3,31.1,09.6,0000.0,0025.42,0005.97,0002.16
2022-04-21 06:09:00,,0824.0,5.00,0.00,29.3,28.5,00.0,38.3,31.1,09.6,0000.0,0024.66,0005.97,0002.15
2022-04-21 06:10:00,,0824.0,4.98,0.00,29.3,28.4,00.0,38.3,31.0,09.6,0000.0,0024.64,0005.96,0002.13
2022-04-21 06:11:00,,0824.1,5.00,0.00,29.3,28.5,00.0,38.3,31.0,09.6,0000.0,0024.89,0005.92,0002.16
2022-04-21 06:12:00,,0824.1,5.01,0.00,29.3,28.4,00.0,38.3,31.0,09.6,0000.0,0024.22,0005.95,0002.16
2022-04-21 06:13:00,,0824.0,4.99,0.00,29.3,28.4,00.0,38.3,31.0,09.6,0000.0,0024.46,0006.00,0002.19
2022-04-21 06:14:00,,0824.0,4.99,0.00,29.3,28.4,00.0,38.2,31.0,09.6,0000.0,0024.40,0005.96,0002.19
2022-04-21 06:15:00,,0823.9,5.01,0.00,29.3,28.4,00.0,38.2,31.0,09.6,0000.0,0024.85,0005.93,0002.18
2022-04-21 06:16:00,,0823.9,4.99,0.00,29.3,28.4,00.0,38.2,31.0,09.6,0000.0,0025.18,0005.89,0002.20
2022-04-21 06:17:00,,0823.9,5.00,0.00,29.2,28.4,00.0,38.2,31.0,09.6,0000.0,0024.12,0005.80,0002.19
2022-04-21 06:18:00,,0824.1,5.02,0.00,29.2,28.4,00.0,38.2,30.9,09.6,0000.0,0022.70,0005.81,0002.22
2022-04-21 06:19:00,,0824.1,4.99,0.00,29.2,28.4,00.0,38.2,31.0,09.7,0000.0,0022.92,0005.81,0002.25
2022-04-21 06:20:00,,0824.2,5.00,0.00,29.2,28.4,00.0,38.2,30.9,09.7,0000.0,0022.79,0005.71,0002.24
2022-04-21 06:21:00,,0824.3,5.02,0.00,29.2,28.4,00.0,38.2,30.9,09.7,0000.0,0024.80,0005.65,0002.24
2022-04-21 06:22:00,,0824.3,4.99,0.00,29.2,28.4,00.0,38.2,30.9,09.7,0000.0,0025.98,0005.67,0002.22
2022-04-21 06:23:00,,0824.3,4.99,0.00,29.2,28.4,00.0,38.2,30.9,09.6,0000.0,0026.59,0005.65,0002.25
2022-04-21 06:24:00,,0824.1,5.02,0.00,29.2,28.4,00.0,38.2,30.9,09.6,0000.0,0026.86,0005.62,0002.25
2022-04-21 06:25:00,,0824.1,4.99,0.00,29.2,28.3,00.0,38.2,30.9,09.6,0000.0,0026.78,0005.64,0002.23
2022-04-21 06:26:00,,0824.1,4.99,0.00,29.2,28.3,00.0,38.2,30.9,09.6,0000.0,0027.23,0005.69,0002.26
2022-04-21 06:27:00,,0824.1,5.00,0.00,29.2,28.3,00.0,38.2,30.9,09.6,0000.0,0026.82,0005.70,0002.24
2022-04-21 06:28:00,,0824.2,5.01,0.00,29.2,28.3,00.0,38.2,30.9,09.6,0000.0,0027.65,0005.73,0002.22
2022-04-21 06:29:00,,0824.3,5.00,0.00,29.2,28.3,00.0,38.2,30.9,09.6,0000.0,0028.67,0005.78,0002.20
2022-04-21 06:30:00,,0824.3,4.99,0.00,29.1,28.3,00.0,38.2,30.9,09.6,0000.0,0028.37,0005.84,0002.20
2022-04-21 06:31:00,,0824.3,5.01,0.00,29.1,28.3,00.0,38.2,30.9,09.7,0000.0,0030.26,0005.97,0002.21
2022-04-21 06:32:00,,0824.3,4.99,0.00,29.1,28.3,00.0,38.1,30.8,09.7,0000.0,0030.74,0006.07,0002.22
2022-04-21 06:33:00,,0824.3,4.99,0.00,29.1,28.3,00.0,38.1,30.9,09.6,0000.0,0028.04,0006.02,0002.20
2022-04-21 06:34:00,,0824.2,5.02,0.00,29.1,28.3,00.0,38.1,30.9,09.7,0000.0,0027.95,0005.99,0002.18
2022-04-21 06:35:00,,0824.3,4.99,0.00,29.1,28.3,00.0,38.1,30.9,09.7,0000.0,0028.97,0005.93,0002.14
2022-04-21 06:36:00,,0824.2,5.01,0.00,29.1,28.3,00.0,38.1,30.8,09.7,0000.0,0029.16,0005.88,0002.15
2022-04-21 06:37:00,,0824.2,5.01,0.00,29.1,28.2,00.0,38.1,30.8,09.7,0000.0,0028.60,0005.78,0002.17
2022-04-21 06:38:00,,0824.3,4.99,0.00,29.1,28.2,00.0,38.1,30.8,09.7,0000.0,0029.01,0005.71,0002.18
2022-04-21 06:39:00,,0824.3,4.99,0.00,29.1,28.2,00.0,38.1,30.8,09.7,0000.0,0027.48,0005.66,0002.18
2022-04-21 06:40:00,,0824.3,5.00,0.00,29.1,28.2,00.0,38.1,30.8,09.7,0000.0,0026.44,0005.60,0002.19
2022-04-21 06:41:00,,0824.3,5.00,0.00,29.1,28.2,00.0,38.1,30.8,09.7,0000.0,0026.26,0005.57,0002.17
2022-04-21 06:42:00,,0824.3,5.01,0.00,29.1,28.2,00.0,38.1,30.8,09.7,0000.0,0025.09,0005.50,0002.16
2022-04-21 06:43:00,,0824.3,4.98,0.00,29.0,28.2,00.0,38.1,30.8,09.7,0000.0,0023.49,0005.40,0002.15
2022-04-21 06:44:00,,0824.2,5.01,0.00,29.0,28.2,00.0,38.1,30.7,09.7,0000.0,0022.89,0005.40,0002.16
2022-04-21 06:45:00,,0824.2,5.01,0.00,29.0,28.2,00.0,38.1,30.7,09.7,0000.0,0022.35,0005.36,0002.19
2022-04-21 06:46:00,,0824.2,5.00,0.00,29.0,28.1,00.0,38.1,30.7,09.6,0000.0,0020.97,0005.38,0002.20
2022-04-21 06:47:00,,0824.3,4.99,0.00,29.0,28.1,00.0,38.0,30.7,09.6,0000.0,0020.52,0005.40,0002.22
2022-04-21 06:48:00,,0824.3,5.00,0.00,29.0,28.1,00.0,38.0,30.7,09.7,0000.0,0020.21,0005.41,0002.19
2022-04-21 06:49:00,,0824.3,5.01,0.00,29.0,28.1,00.0,38.0,30.7,09.7,0000.0,0019.88,0005.43,0002.21
2022-04-21 06:50:00,,0824.3,4.99,0.00,29.0,28.1,00.0,38.0,30.7,09.7,0000.0,0020.59,0005.46,0002.23
2022-04-21 06:51:00,,0824.3,4.99,0.00,29.0,28.1,00.0,38.0,30.7,09.7,0000.0,0020.71,0005.46,0002.24
2022-04-21 06:52:00,,0824.3,5.01,0.00,29.0,28.1,00.0,38.0,30.7,09.7,0000.0,0020.86,0005.52,0002.25
2022-04-21 06:53:00,,0824.3,4.99,0.00,28.9,28.1,00.0,38.0,30.7,09.7,0000.0,0020.45,0005.49,0002.25
2022-04-21 06:54:00,,0824.3,5.00,0.00,28.9,28.1,00.0,38.0,30.7,09.7,0000.0,0021.21,0005.52,0002.28
2022-04-21 06:55:00,,0824.3,5.00,0.00,28.9,28.1,00.0,38.0,30.7,09.7,0000.0,0021.93,0005.51,0002.29
2022-04-21 06:56:00,,0824.3,5.01,0.00,28.9,28.1,00.0,38.0,30.7,09.7,0000.0,0021.99,0005.53,0002.28
2022-04-21 06:57:00,,0824.3,5.01,0.00,28.9,28.0,00.0,38.0,30.6,09.7,0000.0,0021.54,0005.56,0002.30
2022-04-21 06:58:00,,0824.3,5.00,0.00,28.9,28.0,00.0,37.9,30.6,09.7,0000.0,0021.47,0005.51,0002.31
2022-04-21 06:59:00,,0824.3,4.99,0.00,28.9,28.0,00.0,37.9,30.6,09.7,0000.0,0022.61,0005.55,0002.31
